Torna al catalogo

FENGYUN 1C DEB

AttivoPO
NORAD 47029·DEBRIS·🇨🇳 China

Lanciato May 10, 1999 da Taiyuan Satellite Launch Center

Loading…

Prossimi Passaggi (prossime 24 ore)

TLE

AggiornatoSource: Space-Track

Epoca: Sep 12, 2026, 10:06 UTC

1 47029U 99025FBF 26255.42131617  .00028049  00000-0  13046-2 0  9991
2 47029  98.9248 306.4739 0094073 165.6520 194.7414 15.15999669 72003

Traccia FENGYUN 1C DEB in tempo reale con AllMySat

Download on the App Store